INMARSAT 5-F4 (42698 NORAD) Tracking and Keplerian Element Data

This shows tracking and keplerian element data for the satellite.

Feedback or suggestion? Click here.




ElementValue
Catalog42698
NameINMARSAT 5-F4
Epoch Orbit3148
Epoch Day353.99122233
Epoch Year2025
RAAN3.6445
Inclination0.0179
Eccentricity1.96E-05
Argument of Perigee17.8208
Mean Anonmoly120.726
Mean Motion1.00270917
Decay Rate9.9E-07
L11 42698U 17025A 25353.99122233 .00000099 00000+0 00000+0 0 9999
L22 42698 0.0179 3.6445 0000196 17.8208 120.7260 1.00270917 31483



Live tracking and technical data element details for INMARSAT 5-F4 (NORAD 42698). INMARSAT 5-F4 can be tracked NOW for your location showing map with azimuth and elevation plus other details from your city location.







IsCatalogInMostPopularTable: catalog: 42698, numindb: 1164
Update: records affected: 1



GetName: 42698 INMARSAT 5-F4

Hit Count: updated at: Thu, 21 May 2026 11:04:21 GMT